Погода в Давлеканово

Россия / Республика Башкортостан     54°13′21″N   55°01′52″E
темп.,
°C
ветер,
м/с
пор.,
м/с
влажн.,
%
обл.,
%
осадки,
мм/ч
давл.,
гПа
погр.,
м
13 апреля, вт
вт1323:00+5ссв229897 0.0 103826
02:00+6ссз1199100 0.0 103711
05:00+6в1197100 0.0 103810
08:00+3ссв00100100 0.0 103934
11:00+4ююв13100100 0.1 1039117
14:00+10ю258628 0.0 1038276
17:00+14ююв466753 0.0 1037557
20:00+10ююв37875 0.0 103696
14 апреля, ср
ср1423:00+8ю34915 0.0 103659
02:00+7ю229047 0.0 103516
05:00+6ююв22845 0.0 103513
08:00+6ю22845 0.0 103450
11:00+11ююв34665 0.0 1033404
14:00+16юв45445 0.0 1031782
17:00+17ююв45445 0.0 1029978
20:00+13ююв22611 0.0 102815
15 апреля, чт
чт1523:00+10ю33694 0.0 102830
02:00+7ююв22745 0.0 102815
05:00+6ююв22770 0.0 102712
08:00+7ююв24740 0.0 102796
11:00+14ю46540 0.0 1025444
14:00+18ююз45410 0.0 10231083
17:00+19ююз45350 0.0 10221386
20:00+15юз22502 0.0 102112
16 апреля, пт
пт1623:00+12ююз22585 0.0 102011
02:00+10ююз22620 0.0 101911
05:00+9зюз11640 0.0 101910
08:00+10з11621 0.0 101914
11:00+15ссз335267 0.0 1018529
14:00+17с435229 0.0 10181314
17:00+16с555495 0.1 10181561
20:00+11ссв6107181 0.1 1020627
17 апреля, сб
сб1723:00+7с510825 0.1 1021370
02:00+5с510885 0.0 1022324
05:00+3с510855 0.0 1023296
08:00+4с511765 0.0 1023410
11:00+9ссв78484 0.0 1023994
14:00+11ссв673913 0.0 10231522
17:00+11ссв66362 0.0 10231630
20:00+8с36460 0.0 1023157